Weather observations for the past three days for
Livermore, Livermore Municipal Airport
Imperial (Metric)
Date Time (pdt) Wind (mph) Vis. (mi.) Weather Sky Cond. Temperature (ºF) Relative Humidity Wind Chill (°F) Heat Index (°F) Pressure Precipitation (in)
Air Dwpt 6 hour altimeter (in) sea level (mb) 1 hr 3 hr 6 hr
Max. Min.
14 05:53 W 9 9.00 Fair CLR 59 55 87% 30.01 1015.6
14 04:53 W 9 9.00 Fair CLR 60.1 55 70 59 84% 29.98 1014.5
14 03:53 NW 8 10.00 Fair CLR 61 55 81% 29.95 1013.6
14 02:53 W 7 10.00 Fair CLR 62.1 54 75% 29.94 1013.2
14 01:53 W 9 10.00 Fair CLR 64 54 70% 29.93 1013.0
14 00:53 W 8 10.00 Fair CLR 66 54 65% 29.93 1013.0
13 23:53 W 9 10.00 Fair CLR 68 54 61% 29.93 1012.9
13 22:53 W 5 10.00 Fair CLR 70 54 90 70 57% 29.94 1013.5
13 21:53 W 10 10.00 Fair CLR 71.1 53.1 53% 29.94 1013.5
13 20:53 W 6 10.00 Fair CLR 72 53.1 52% 29.93 1013.0
13 19:53 NW 10 10.00 Fair CLR 75 53.1 46% 78 29.92 1012.7
13 18:53 NW 7 10.00 Fair CLR 80.1 55 42% 80 29.9 1012.1
13 17:53 NW 15 10.00 Fair CLR 82 55.9 41% 82 29.87 1011.0
13 16:53 W 13 10.00 Fair CLR 90 59 91 77 35% 89 29.86 1010.7
13 15:53 W 13 10.00 Fair CLR 90 57.9 34% 89 29.87 1011.1
13 14:53 W 9 10.00 Fair CLR 90 57 33% 89 29.88 1011.3
13 13:53 Vrbl 5 10.00 Fair CLR 88 57 35% 87 29.87 1011.0
13 12:53 NW 10 10.00 Fair CLR 84 57 40% 83 29.89 1011.5
13 11:53 W 9 10.00 Fair CLR 82 55.9 41% 82 29.89 1011.5
13 10:53 SW 9 10.00 Fair CLR 77 57 77 66.9 50% 79 29.88 1011.4
13 09:53 SW 7 10.00 Fair CLR 73 57 57% 29.9 1011.8
13 08:53 S 5 10.00 A Few Clouds FEW110 72 57 59% 29.9 1012.0
13 07:53 SW 10 9.00 Fair CLR 70 55.9 61% 29.86 1010.6
13 06:53 W 8 9.00 Fair CLR 66.9 55.9 68% 29.85 1010.4
13 05:53 Calm 10.00 A Few Clouds FEW100 69.1 55.9 63% 29.82 1009.4
13 04:53 S 6 10.00 Fair CLR 70 55.9 77 68 61% 29.81 1008.9
13 03:53 W 9 7.00 Fair CLR 70 55.9 61% 29.81 1008.8
13 02:53 NW 8 7.00 Fair CLR 70 53.1 55% 29.8 1008.6
13 01:53 NW 6 6.00 Fair with Haze CLR 71.1 52 51% 29.81 1008.8
13 00:53 W 8 10.00 Fair CLR 73 52 48% 29.81 1008.7
12 23:53 W 7 10.00 Fair CLR 73.9 52 46% 29.81 1008.7
12 22:53 W 6 10.00 Fair CLR 75 55 98.1 75 50% 78 29.8 1008.7
12 21:53 W 6 10.00 Fair CLR 81 48 32% 80 29.81 1008.8
12 20:53 NW 7 10.00 Fair CLR 82.9 46.9 28% 81 29.8 1008.5
12 19:53 NW 10 10.00 Fair CLR 88 45 22% 85 29.8 1008.4
12 18:53 W 15 10.00 Fair CLR 91.9 44.1 19% 88 29.78 1008.0
12 17:53 W 13 10.00 Fair CLR 96.1 46 18% 92 29.77 1007.7
12 16:53 W 16 10.00 Fair CLR 98.1 45 102.9 90 16% 94 29.78 1007.7
12 15:53 W 16 10.00 Fair CLR 100 48 17% 97 29.78 1007.8
12 14:53 W 15 10.00 Fair CLR 100.9 50 18% 98 29.79 1008.1
12 13:53 W 10 10.00 Fair CLR 102 46.9 15% 98 29.8 1008.4
12 12:53 NW 9 5.00 Fair with Haze CLR 99 48 18% 95 29.81 1008.9
12 11:53 SW 8 10.00 Fair CLR 95 55 26% 93 29.82 1009.2
12 10:53 W 3 10.00 Fair CLR 90 54 90 69.1 29% 88 29.82 1009.2
12 09:53 Calm 10.00 Fair CLR 82.9 57.9 43% 83 29.83 1009.5
12 08:53 W 3 10.00 Fair CLR 79 57.9 49% 80 29.84 1009.9
12 07:53 Calm 8.00 Fair CLR 73.9 57.9 57% 29.84 1009.9
12 06:53 Calm 8.00 Fair CLR 70 55 59% 29.83 1009.7
12 05:53 E 3 10.00 Fair CLR 70 55 59% 29.82 1009.2
12 04:53 W 3 10.00 Fair CLR 71.1 54 82 71.1 55% 29.81 1008.8
12 03:53 Calm 10.00 Fair CLR 71.1 53.1 53% 29.81 1008.8
12 02:53 Calm 10.00 Fair CLR 73.9 51.1 45% 29.8 1008.6
12 01:53 Calm 10.00 Fair CLR 75 51.1 43% 78 29.82 1009.0
12 00:53 Calm 5.00 Fair with Haze CLR 77 48 36% 78 29.82 1009.0
11 23:53 Calm 10.00 Fair CLR 79 46.9 32% 79 29.83 1009.4
11 22:53 Calm 10.00 Fair CLR 82 46 107.1 81 28% 80 29.83 1009.4
11 21:53 Calm 10.00 Fair CLR 84 50 31% 82 29.83 1009.4
11 20:53 W 7 10.00 Fair CLR 86 44.1 23% 83 29.81 1008.9
11 19:53 NW 12 10.00 Fair CLR 91 44.1 20% 87 29.8 1008.4
11 18:53 W 15 10.00 Fair CLR 98.1 45 16% 94 29.78 1007.7
11 17:53 W 15 10.00 Fair CLR 102.9 46.9 15% 99 29.76 1007.2
11 16:53 W 15 10.00 Fair CLR 106 51.1 109 91 16% 103 29.77 1007.3
11 15:53 W 13 10.00 Fair CLR 108 54 17% 106 29.78 1007.8
11 14:53 W 10 10.00 Fair CLR 108 53.1 16% 106 29.79 1008.2
11 13:53 W 9 10.00 Fair CLR 108 52 16% 106 29.81 1008.7
11 12:53 SW 8 10.00 Fair CLR 102.9 52 18% 100 29.83 1009.3
11 11:53 W 6 10.00 Fair CLR 98.1 52 21% 95 29.84 1009.9
11 10:53 S 5 10.00 Fair CLR 91 55 91 66 30% 89 29.85 1010.2
11 09:53 Calm 10.00 Fair CLR 84 57.9 41% 83 29.85 1010.4
11 08:53 W 3 10.00 Fair CLR 78.1 60.1 54% 79 29.86 1010.6
11 07:53 Calm 10.00 Fair CLR 73.9 59 60% 29.86 1010.5
11 06:53 Calm 10.00 Fair CLR 69.1 55.9 63% 29.84 1010.1
Date Time (pdt) Wind (mph) Vis. (mi.) Weather Sky Cond. Air Dwpt Max. Min. Relative Humidity Wind Chill (°F) Heat Index (°F) altimeter (in) sea level (mb) 1 hr 3 hr 6 hr
6 hour
Temperature (ºF) Pressure Precipitation (in)